Погода в Братолюбовке

Погода в Братолюбовке : погода сейчас, прогноз погоды и архив. Всё, что Вы хотите узнать о погоде в Братолюбовке!

Поиск расширенной информации на нашем сайте:

Другие новости

Новости СМИ2

Главная страница сайта

Новости сайта

02.10.2013

Напоминаем, что на нашем новом сайте вы можете получить высокодетализированные прогнозы погоды по пунктам России, СНГ и мира (включающие важные для авиации метеовеличины, такие как направление и скорость ветра, видимость, явления погоды, количество и форма облачности, нижняя и верхняя граница облачности), а также ознакомиться с разнообразными материалами по авиационной метеорологии и подборкой полезных ссылок на эту тему.

Сайт Метеоцентр.Азия посвящён разработке технологий оптимизации авиаметеорологического обслуживания, включая проектирование и перспективное создание нескольких автоматизированных авиаметеорологических систем:
- система выпуска высокодетальных прогностических карт явлений погоды для нижнего воздушного пространства по России и ближнему зарубежью;
- система верификации прогнозов TAF (выпускаемых синоптиками официальных АМСГ РФ и ближнего зарубежья) и AUTOTAF (выпускаемых сайтом Метеоцентр.Азия) - выявление ошибок, онлайн-сопоставление с фактической погодой METAR, автоматическое внесение коррективов в прогнозы при резком отклонении фактической погоды от прогноза, подсчёт оправдываемости прогнозов по элементам и в целом;
- система обработки, анализа и отображения авиаметеорологической информации для применения провайдерами метеорологической информации.

Рекомендуем: Перфоратор оптом купить оптом перфоратор lad-rostov.ru.

Погода в Братолюбовке - сегодня

Время (UTC), дата Ветер
(°,м/с) 
Видим.   Явления Облачность Т
(°С)
Тd
(°С)
f(%) Тe
(°С)
Pmin
(гПа)
dP
(гПа)
Po
(мм)
O2
(г/м3)
Тmin Tmax R s Состояние
почвы
12 22.05.17 190 (Ю) 20000 м    ясно 
+14.2 -1.5 34 +15  1010.1  -0.2  737  283    +22.7       
15 22.05.17 150 (ЮВ) 50000 м    ясно 
+10.5 -2.6 40 +12  1010.1  -0.4  737  286           
18 22.05.17 180 (Ю) 50000 м    ясно 
+6.9 -3.1 49 +8  1009.5  -0.9  736  290           
21 22.05.17 150 (ЮВ) 20000 м    1/0 средняя 
[Ac und]
+6.3 -3.6 49 +7  1008.6  -1  736  290           
00 23.05.17 240 (ЮЗ) 20000 м    6/0 средняя, верхняя 
[Ac cast|Ci]
+13.2 -1.1 37 +14  1006.8  -1  735  282  +3.9        сухая 
03 23.05.17 340 (С) 20000 м    10/1 1000 м средняя, верхняя 
[Cu hum|Ac trans|Cs]
+14.5 +0.1 37 +16  1006.5  -0.2  735  281           
06 23.05.17 300 (СЗ) 3-10{14}  20000 м  {ливн. осадки}  10/9 600 м кучево-дожд., средняя 
[Cb cap|As trans]
+9.6 +3.7 67 +9  1005.1  -1.8  733  285           
09 23.05.17 060 (СВ) 1{14}  20000 м    10/6 600 м кучево-дожд., средняя 
[Cb cap|As trans]
+10.8 +0.3 48 +12  1007  735  285           
12 23.05.17 тихо ()   20000 м    4/0 средняя, верхняя 
[Ac lent|Ci fib]
+5.3 +1.3 75 +5  1007.4  -0.2  735  290    +16  0.0     
15 23.05.17 тихо ()   50000 м    ясно 
+1 +1 100 +1  1008.1  0.3  735  295           
18 23.05.17 тихо ()   50000 м    1/0 средняя 
[Ac lent]
-0.8 -1.1 98 -1  1008  -0.3  735  297           
21 23.05.17 тихо ()   4100 м  дымка  3/0 средняя, верхняя 
[Ac lent|Ci fib]
-1.2 -1.5 98 -1  1008.2  0.1  735  297           
00 24.05.17 330 (СЗ) 20000 м    10/0 верхняя 
[Cs]
+6.8 +2.2 72 +8  1008.1  0.8  735  289  -1.7        сухая 
03 24.05.17 040 (СВ) 20000 м    10/8 600 м кучево-дожд., верхняя 
[Cb cap|Cs]
+11.4 -1.5 41 +12  1007.9  0.1  735  285           
06 24.05.17 030 (СВ) 2{10}  20000 м    10/5 600 м кучево-дожд., средняя 
[Cb cap|As trans]
+11.8 -2.7 36 +12  1007.7  -0.1  735  284           
09 24.05.17 090 (В) 20000 м    8/3 1000 м верхняя 
[Cu hum|Ci fib]
+12.8 -0.3 40 +14  1008.1  0.5  736  283           
12 24.05.17 тихо ()   20000 м    ясно 
+6.7 +3.6 81 +7  1010.3  1.6  737  289    +14.4       
15 24.05.17 тихо ()   50000 м    9/0 средняя 
[Ac trans]
+4 +3 93 +4  1012.3  1.6  738  293           
18 24.05.17 050 (СВ) 50000 м    ясно 
+2.4 +2.1 98 +3  1012.7  0.2  738  295           
21 24.05.17 тихо ()   9000 м  дымка  ясно 
+3 +2.8 99 +3  1014.2  1.6  739  294           
00 25.05.17 310 (СЗ) 20000 м    ясно 
+12.4 +5.8 64 +14  1013.6  0.4  740  284  +1.1        сухая 
03 25.05.17 020 (С) 20000 м    3/3 1000 м 
[Cu hum]
+17.9 +3.6 39 +19  1012.4  -0.7  739  279           
06 25.05.17 280 (З) 20000 м    3/3 1000 м 
[Cu hum]
+21 +4.1 33 +21  1010.2  -1.9  738  275           
09 25.05.17 280 (З) 20000 м    3/0 средняя, верхняя 
[Ac cast|Ci fib]
+21.2 +0.8 26 +21  1009.5  -0.7  737  275           
12 25.05.17 тихо ()   20000 м    4/0 средняя, верхняя 
[Ac cast|Ci fib]
+11.2 +6.3 72 +11  1010.7  0.3  737  284    +25.5       
Время (UTC), дата Ветер
(°,м/с) 
Видим.   Явления Облачность Т
(°С)
Тd
(°С)
f(%) Тe
(°С)
Pmin
(гПа)
dP
(гПа)
Po
(мм)
O2
(г/м3)
Тmin Tmax R s Состояние
почвы

Для получения пояснительной информации подведите курсор к названию столбца.

ПОГОДА в Братолюбовке - архив

Всё, что Вы хотите узнать о погоде в Братолюбовке - удобно и подробно!

Выберите нужную дату (начиная с 1 января 2015* года) и нажмите кнопку "Найти".
Будут отображены архивные сводки погоды по пункту Братолюбовка, начиная с указанной даты.


Отображать данные в формате CSV (для использования в таблицах Excel)


Внимание! Наш архив погоды предназначен исключительно для личного некоммерческого использования в познавательных целях. Если Вам необходимы официальные справки о состоянии погоды (для производственных, юридических, коммерческих и т.п. целей), обращайтесь в органы Росгидромета.

*Примечание: данная дата относится к архиву по метеостанциям СССР (Россия, СНГ, Балтия).
Архив по метеостанциям Зарубежной Европы и Азии (кроме Китая) хранится 10 дней, по другим регионам земного шара (Китай, Африка, Америка, Австралия, Океания) - 1 день.

Братолюбовка - район местоположения метеостанции


Название, широта, долгота, высота метеостанции:
Братолюбовка 50.8°ш. 129.3°д. 227 м над ур. моря [Российская Федерация]

Дополнительная информация

В oтличие oт бoльшинства пoгoдных сайтoв мы публикуем пoдрoбную метеoинфoрмацию в детальнoм прoфессиoнальнoм фoрмате.

Характеристики температуры и влажнoсти вoздуха измеряются на высoте 2 м в тени вдали oт зданий и деревьев.
Скoрoсть ветра измеряется на высoте 10 м (на урoвне рoста челoвека скoрoсть ветра ниже в 1.5-2 раза). Если метеoстанция нахoдится в гoрoде или в лесу, тo скoрoсть ветра занижена на 2-4 м/с пo сравнению с oткрытым местoм. Скoрoсть ветра над акватoриями крупных рек и oзёр, а также на вершинах хoлмoв на 2-5 м/с выше, чем в oбычных услoвиях.
Атмoсфернoе давление в разных тoчках местнoсти мoжет значительнo oтличаться oт давления на метеoстанции, в зависимoсти oт услoвий рельефа (при пoдъёме на 10 м давление пoнижается примернo на 1 мм рт.ст.).